When you browse on this site, cookies collect data to enhance your experience and personalize the content and advertising you see.
Visit our Privacy Policy to learn more. By continuing to use the site, you agree to this use of cookies and data.
  • In Österreich
  • Länderverzeichnis
  • Für 7 Tage
  • Wassertemperatur
  • Satellitenkarten
  • Wetterkarte
  • News
  • Widgets
  • user-avatar
    Anmelden

    Stündliche Wetter Boma

    Heute, 19 Juli, Freitag

    Zeit Temperatur Niederschläge Wind Luftdruck Luftfeuchtigkeit
    00:00 +20°C° 0.3 mm 0 m/S 701 mmHg 97%
    01:00 +20°C° 0 mm 0 m/S 701 mmHg 97%
    02:00 +19°C° 0.3 mm 0 m/S 701 mmHg 97%
    03:00 +19°C° 0.3 mm 0 m/S 701 mmHg 98%
    04:00 +19°C° 0.3 mm 0 m/S 700 mmHg 99%
    05:00 +19°C° 0 mm 0 m/S 701 mmHg 99%
    06:00 +20°C° 0 mm 0 m/S 701 mmHg 99%
    07:00 +20°C° 0 mm 0 m/S 701 mmHg 98%
    08:00 +21°C° 0 mm 0 m/S 701 mmHg 93%
    09:00 +24°C° 0 mm 1 m/S 702 mmHg 87%
    10:00 +25°C° 0 mm 1 m/S 702 mmHg 82%
    11:00 +25°C° 0.4 mm 1 m/S 702 mmHg 84%
    12:00 +24°C° 0.4 mm 0 m/S 701 mmHg 86%
    13:00 +24°C° 0.4 mm 0 m/S 701 mmHg 87%
    14:00 +24°C° 1.2 mm 0 m/S 700 mmHg 88%
    15:00 +24°C° 1.2 mm 0 m/S 699 mmHg 89%
    16:00 +24°C° 1.2 mm 0 m/S 699 mmHg 89%
    17:00 +23°C° 0.9 mm 0 m/S 699 mmHg 91%
    18:00 +22°C° 0.9 mm 0 m/S 699 mmHg 93%
    19:00 +20°C° 0.9 mm 0 m/S 700 mmHg 95%
    20:00 +20°C° 0 mm 0 m/S 700 mmHg 95%
    21:00 +20°C° 0 mm 0 m/S 701 mmHg 96%
    22:00 +19°C° 0 mm 0 m/S 701 mmHg 96%
    23:00 +19°C° 0.2 mm 0 m/S 701 mmHg 97%

    Morgen, 20 Juli, Samstag

    Zeit Temperatur Niederschläge Wind Luftdruck Luftfeuchtigkeit
    00:00 +19°C° 0.2 mm 0 m/S 701 mmHg 97%
    01:00 +21°C° 0.2 mm 1 m/S 701 mmHg 98%
    02:00 +21°C° 0.2 mm 1 m/S 701 mmHg 98%
    03:00 +22°C° 0.2 mm 1 m/S 700 mmHg 98%
    04:00 +22°C° 0.2 mm 1 m/S 700 mmHg 99%
    05:00 +22°C° 0 mm 1 m/S 701 mmHg 98%
    06:00 +22°C° 0 mm 1 m/S 701 mmHg 98%
    07:00 +20°C° 0 mm 0 m/S 702 mmHg 98%
    08:00 +23°C° 0.1 mm 1 m/S 702 mmHg 92%
    09:00 +24°C° 0.1 mm 1 m/S 703 mmHg 86%
    10:00 +26°C° 0.1 mm 1 m/S 703 mmHg 80%
    11:00 +27°C° 0.7 mm 1 m/S 703 mmHg 78%
    12:00 +28°C° 0.7 mm 1 m/S 702 mmHg 75%
    13:00 +29°C° 0.7 mm 1 m/S 701 mmHg 73%
    14:00 +28°C° 1.1 mm 1 m/S 700 mmHg 76%
    15:00 +28°C° 1.1 mm 1 m/S 700 mmHg 80%
    16:00 +27°C° 1.1 mm 1 m/S 699 mmHg 84%
    17:00 +24°C° 0.3 mm 0 m/S 699 mmHg 88%
    18:00 +22°C° 0.3 mm 0 m/S 700 mmHg 92%
    19:00 +21°C° 0.3 mm 0 m/S 700 mmHg 96%
    20:00 +21°C° 0.2 mm 0 m/S 700 mmHg 96%
    21:00 +21°C° 0.2 mm 0 m/S 701 mmHg 96%
    22:00 +22°C° 0.2 mm 1 m/S 701 mmHg 96%
    23:00 +22°C° 1.2 mm 1 m/S 701 mmHg 97%

    übermorgen, 21 Juli, Sonntag

    Zeit Temperatur Niederschläge Wind Luftdruck Luftfeuchtigkeit
    00:00 +22°C° 1.2 mm 1 m/S 701 mmHg 97%
    01:00 +22°C° 1.2 mm 1 m/S 701 mmHg 98%
    02:00 +22°C° 0.4 mm 1 m/S 701 mmHg 98%
    03:00 +22°C° 0.4 mm 1 m/S 701 mmHg 99%
    04:00 +22°C° 0.4 mm 1 m/S 700 mmHg 99%
    05:00 +22°C° 0 mm 1 m/S 701 mmHg 99%
    06:00 +20°C° 0 mm 0 m/S 701 mmHg 99%
    07:00 +20°C° 0 mm 0 m/S 702 mmHg 99%
    08:00 +23°C° 0.2 mm 1 m/S 702 mmHg 94%
    09:00 +24°C° 0.2 mm 1 m/S 703 mmHg 89%
    10:00 +25°C° 0.2 mm 1 m/S 703 mmHg 84%
    11:00 +25°C° 1.7 mm 1 m/S 703 mmHg 87%
    12:00 +25°C° 1.7 mm 1 m/S 702 mmHg 89%
    13:00 +25°C° 1.7 mm 1 m/S 701 mmHg 92%
    14:00 +26°C° 1.2 mm 1 m/S 701 mmHg 91%
    15:00 +26°C° 1.2 mm 1 m/S 700 mmHg 89%
    16:00 +26°C° 1.2 mm 1 m/S 699 mmHg 88%
    17:00 +25°C° 1.3 mm 1 m/S 700 mmHg 91%
    18:00 +22°C° 1.3 mm 0 m/S 700 mmHg 93%
    19:00 +21°C° 1.3 mm 0 m/S 700 mmHg 96%
    20:00 +20°C° 0.6 mm 0 m/S 700 mmHg 97%
    21:00 +20°C° 0.6 mm 0 m/S 701 mmHg 98%
    22:00 +20°C° 0.6 mm 0 m/S 701 mmHg 98%
    23:00 +20°C° 0.6 mm 0 m/S 701 mmHg 99%

    22 Juli, Montag

    Zeit Temperatur Niederschläge Wind Luftdruck Luftfeuchtigkeit
    00:00 +20°C° 0.6 mm 0 m/S 701 mmHg 99%
    01:00 +20°C° 0.6 mm 0 m/S 701 mmHg 99%
    02:00 +20°C° 0.6 mm 0 m/S 700 mmHg 99%
    03:00 +19°C° 0.6 mm 0 m/S 700 mmHg 99%
    04:00 +19°C° 0.6 mm 0 m/S 700 mmHg 99%
    05:00 +19°C° 0.9 mm 0 m/S 700 mmHg 99%
    06:00 +19°C° 0.9 mm 0 m/S 701 mmHg 99%
    07:00 +20°C° 0.9 mm 0 m/S 701 mmHg 99%
    08:00 +20°C° 1.6 mm 0 m/S 702 mmHg 99%
    09:00 +20°C° 1.6 mm 0 m/S 702 mmHg 99%
    10:00 +20°C° 1.6 mm 0 m/S 702 mmHg 99%
    11:00 +20°C° 0.8 mm 0 m/S 702 mmHg 98%
    12:00 +22°C° 0.8 mm 1 m/S 701 mmHg 98%
    13:00 +22°C° 0.8 mm 1 m/S 701 mmHg 98%
    14:00 +20°C° 0.1 mm 0 m/S 700 mmHg 97%
    15:00 +21°C° 0.1 mm 0 m/S 700 mmHg 96%
    16:00 +21°C° 0.1 mm 0 m/S 699 mmHg 96%
    17:00 +20°C° 0 mm 0 m/S 699 mmHg 97%
    18:00 +20°C° 0 mm 0 m/S 699 mmHg 97%
    19:00 +20°C° 0 mm 0 m/S 700 mmHg 98%
    20:00 +20°C° 0 mm 0 m/S 700 mmHg 98%
    21:00 +20°C° 0 mm 0 m/S 700 mmHg 98%
    22:00 +19°C° 0 mm 0 m/S 701 mmHg 98%
    23:00 +19°C° 0 mm 0 m/S 701 mmHg 98%

    23 Juli, Dienstag

    Zeit Temperatur Niederschläge Wind Luftdruck Luftfeuchtigkeit
    00:00 +19°C° 0 mm 0 m/S 700 mmHg 98%
    01:00 +19°C° 0 mm 0 m/S 700 mmHg 99%
    02:00 +19°C° 0 mm 0 m/S 700 mmHg 99%
    03:00 +19°C° 0 mm 0 m/S 700 mmHg 99%
    04:00 +19°C° 0 mm 0 m/S 700 mmHg 99%
    05:00 +19°C° 0 mm 0 m/S 700 mmHg 98%
    06:00 +19°C° 0 mm 0 m/S 701 mmHg 97%
    07:00 +20°C° 0 mm 0 m/S 701 mmHg 97%
    08:00 +20°C° 0.1 mm 0 m/S 702 mmHg 92%
    09:00 +21°C° 0.1 mm 0 m/S 702 mmHg 88%
    10:00 +24°C° 0.1 mm 1 m/S 702 mmHg 84%
    11:00 +26°C° 0 mm 1 m/S 702 mmHg 75%
    12:00 +28°C° 0 mm 1 m/S 701 mmHg 66%
    13:00 +30°C° 0 mm 1 m/S 701 mmHg 57%
    14:00 +29°C° 0.4 mm 1 m/S 700 mmHg 63%
    15:00 +29°C° 0.4 mm 1 m/S 700 mmHg 69%
    16:00 +28°C° 0.4 mm 1 m/S 699 mmHg 74%
    17:00 +26°C° 0.4 mm 1 m/S 699 mmHg 82%
    18:00 +25°C° 0.4 mm 1 m/S 699 mmHg 89%
    19:00 +23°C° 0.4 mm 1 m/S 699 mmHg 96%
    20:00 +22°C° 0.3 mm 1 m/S 700 mmHg 97%
    21:00 +22°C° 0.3 mm 1 m/S 700 mmHg 97%
    22:00 +22°C° 0.3 mm 1 m/S 701 mmHg 98%
    23:00 +21°C° 0.5 mm 1 m/S 701 mmHg 98%

    24 Juli, Mittwoch

    Zeit Temperatur Niederschläge Wind Luftdruck Luftfeuchtigkeit
    00:00 +21°C° 0.5 mm 1 m/S 700 mmHg 99%
    01:00 +21°C° 0.5 mm 1 m/S 700 mmHg 99%
    02:00 +21°C° 0.1 mm 1 m/S 700 mmHg 99%
    03:00 +22°C° 0.1 mm 1 m/S 700 mmHg 99%
    04:00 +22°C° 0.1 mm 1 m/S 700 mmHg 99%
    05:00 +22°C° 0.1 mm 1 m/S 701 mmHg 99%
    06:00 +22°C° 0.1 mm 1 m/S 701 mmHg 99%
    07:00 +20°C° 0.1 mm 0 m/S 701 mmHg 98%
    08:00 +22°C° 0.1 mm 1 m/S 702 mmHg 97%
    09:00 +23°C° 0.1 mm 1 m/S 702 mmHg 96%
    10:00 +23°C° 0.1 mm 1 m/S 702 mmHg 94%
    11:00 +25°C° 0.1 mm 1 m/S 702 mmHg 85%
    12:00 +27°C° 0.1 mm 1 m/S 701 mmHg 75%
    13:00 +28°C° 0.1 mm 1 m/S 701 mmHg 66%
    14:00 +28°C° 0.2 mm 1 m/S 700 mmHg 66%
    15:00 +28°C° 0.2 mm 1 m/S 699 mmHg 67%
    16:00 +28°C° 0.2 mm 1 m/S 699 mmHg 67%
    17:00 +27°C° 0.1 mm 1 m/S 699 mmHg 75%
    18:00 +25°C° 0.1 mm 1 m/S 699 mmHg 83%
    19:00 +22°C° 0.1 mm 0 m/S 699 mmHg 91%
    20:00 +21°C° 1.1 mm 0 m/S 699 mmHg 93%
    21:00 +20°C° 1.1 mm 0 m/S 700 mmHg 95%
    22:00 +20°C° 1.1 mm 0 m/S 700 mmHg 97%
    23:00 +20°C° 0.2 mm 0 m/S 700 mmHg 97%
    Mehr zeigen